Boston, MA

6:22 PM EDT on August 31, 2016 (GMT -0400)
East Milton

Weather History for KMQE - January, 2014

Change the Weather History Date:

Tuesday, January 28, 2014

  Actual Average (KBOS) Record (KBOS)
Temperature  
Mean Temperature 13 °F 29 °F  
Max Temperature 17 °F 36 °F 63 °F (1916)
Min Temperature 9 °F 22 °F -5 °F (1935)
Degree Days  
Heating Degree Days 52 36  
Month to date heating degree days 1004  
Since 1 July heating degree days 2998  
Cooling Degree Days 0 0  
Month to date cooling degree days 0  
Year to date cooling degree days 0  
Moisture  
Dew Point -7 °F    
Average Humidity 41    
Maximum Humidity 51    
Minimum Humidity 31    
Precipitation  
Precipitation 0.00 in 0.10 in 1.68 in (1886)
Month to date precipitation 3.04  
Year to date precipitation 3.04  
Sea Level Pressure  
Sea Level Pressure 30.22 in    
Wind  
Wind Speed 14 mph (West)    
Max Wind Speed 22 mph    
Max Gust Speed 32 mph    
T = Trace of Precipitation, MM = Missing Value Source: NWS Daily Summary

Daily Weather History Graph

Daily Weather History Graph

Search for Another Location

Airport or City:

Trip Planner

Search our weather history database for the weather conditions in past years. The results will help you decide how hot, cold, wet, or windy it might be!

Date:

Astronomy

Jan. 28, 2014 Rise Set
Actual Time 7:01 AM EST 4:53 PM EST
Civil Twilight 6:31 AM EST 5:23 PM EST
Nautical Twilight 5:57 AM EST 5:57 PM EST
Astronomical Twilight 5:24 AM EST 6:30 PM EST
Moon 4:41 AM EST (1/28) 2:39 PM EST (1/28)
Length of Visible Light 10h 52m
Length of Day
9h 52m
Waning Crescent, 7% of the Moon is Illuminated
Jan 28
Waning Crescent
Jan 30
New
Feb 6
First Quarter
Feb 14
Full
Feb 22
Last Quarter

Hourly Weather History & Observations

Time (EST) Temp. Windchill Dew Point Humidity Pressure Visibility Wind Dir Wind Speed Gust Speed Precip Events Conditions
12:54 AM 16.0 °F -0.9 °F -0.0 °F 49% 30.00 in - WNW 19.6 mph 28.8 mph N/A   Unknown
1:54 AM 15.1 °F 1.8 °F -0.9 °F 49% 30.03 in - WNW 11.5 mph 24.2 mph N/A   Unknown
2:54 AM 14.0 °F -4.3 °F -4.0 °F 45% 30.05 in - WNW 21.9 mph 32.2 mph N/A   Unknown
3:54 AM 12.0 °F -5.6 °F -4.0 °F 49% 30.09 in - West 18.4 mph 27.6 mph N/A   Unknown
4:54 AM 10.9 °F -7.5 °F -4.0 °F 51% 30.13 in - West 19.6 mph 26.5 mph N/A   Unknown
5:54 AM 10.0 °F -7.1 °F -7.1 °F 46% 30.17 in - West 16.1 mph 24.2 mph N/A   Unknown
6:54 AM 9.0 °F -6.6 °F -9.0 °F 44% 30.21 in - West 12.7 mph 25.3 mph N/A   Unknown
7:54 AM 9.0 °F -10.5 °F -9.0 °F 44% 30.24 in - WNW 20.7 mph 31.1 mph N/A   Unknown
8:54 AM 10.9 °F -7.9 °F -11.0 °F 37% 30.27 in - WNW 20.7 mph 31.1 mph N/A   Unknown
9:54 AM 12.0 °F -2.7 °F -9.9 °F 37% 30.29 in - WNW 12.7 mph 26.5 mph N/A   Unknown
10:54 AM 12.9 °F -2.2 °F -11.0 °F 34% 30.29 in - NW 13.8 mph 25.3 mph N/A   Unknown
11:54 AM 16.0 °F 2.9 °F -9.9 °F 31% 30.27 in - West 11.5 mph 24.2 mph N/A   Unknown
12:54 PM 15.1 °F 1.1 °F -9.0 °F 34% 30.25 in - NW 12.7 mph 21.9 mph N/A   Unknown
1:54 PM 17.1 °F 5.0 °F -8.0 °F 33% 30.25 in - West 10.4 mph - N/A   Unknown
2:54 PM 16.0 °F 5.3 °F -9.0 °F 32% 30.26 in - WNW 8.1 mph - N/A   Unknown
3:54 PM 15.1 °F 3.3 °F -9.0 °F 34% 30.29 in - WSW 9.2 mph - N/A   Unknown
4:54 PM 15.1 °F 5.2 °F -8.0 °F 36% 30.30 in - WSW 6.9 mph - N/A   Unknown
5:15 PM - - - N/A% - - North - - N/A   Unknown
5:54 PM 14.0 °F 2.0 °F -8.0 °F 37% 30.32 in - WSW 9.2 mph - N/A   Unknown
6:54 PM 14.0 °F 3.9 °F -7.1 °F 39% 30.31 in - WSW 6.9 mph - N/A   Unknown
7:54 PM 14.0 °F 3.9 °F -6.0 °F 41% 30.30 in - WSW 6.9 mph - N/A   Unknown
8:54 PM 14.0 °F 2.9 °F -6.0 °F 41% 30.30 in - WSW 8.1 mph - N/A   Unknown
9:54 PM 14.0 °F 3.9 °F -5.1 °F 43% 30.27 in - West 6.9 mph - N/A   Unknown
10:54 PM 14.0 °F 6.5 °F -5.1 °F 43% 30.24 in - West 4.6 mph - N/A   Unknown
11:54 PM 14.0 °F 8.2 °F -4.0 °F 45% 30.23 in - West 3.5 mph - N/A   Unknown